Regional Weather Roundup
Issued by NWS

Home | Current Version | Previous Version | Graphics & Text | Print | Product List | Glossary On
Versions: 1 2 3 4 5 6 7 8 9 10 11 12 13 14 15 16 17 18 19 20 21 22 23 24 25 26 27 28 29 30 31 32 33 34 35 36 37 38 39 40 41 42 43 44 45 46 47 48 49 50
000
ASUS43 KLMK 161902
RWRKY
KENTUCKY REGIONAL WEATHER ROUNDUP
NATIONAL WEATHER SERVICE LOUISVILLE KY
200 PM EST MON JAN 16 2017

NOTE "FAIR" INDICATES FEW OR NO CLOUDS BELOW 12,000 FEET
WITH NO SIGNIFICANT WEATHER AND/OR OBSTRUCTIONS TO VISIBILITY.

KYZ001>023-026-027-061>063-070>075-162000-
WESTERN AND SOUTH CENTRAL KENTUCKY

CITY           SKY/WX    TMP DP  RH WIND       PRES   REMARKS
PADUCAH        LGT RAIN  58  54  86 SE6       30.05F
HENDERSON      CLOUDY    52  48  87 SE3       30.10F
OWENSBORO      CLOUDY    54  52  93 SE7       30.12F
HOPKINSVILLE   CLOUDY    62  57  83 SE7       30.10F
BOWLING GREEN  CLOUDY    64  53  67 S5        30.15F
GLASGOW        NOT AVBL
$$

KYZ024-025-028>034-038-045-046-053-162000-
NORTH CENTRAL KENTUCKY

CITY           SKY/WX    TMP DP  RH WIND       PRES   REMARKS
LOUISVILLE/SDF LGT RAIN  54  48  80 SE5       30.16F
LOUISVILLE/LOU CLOUDY    55  49  80 S5        30.17F
FORT KNOX      CLOUDY    52  52 100 E3        30.14F
$$

KYZ035>037-039>044-047>052-055>060-089>105-162000-
NORTHEAST KENTUCKY

CITY           SKY/WX    TMP DP  RH WIND       PRES   REMARKS
LEXINGTON      CLOUDY    60  52  74 S6        30.19F
COVINGTON      CLOUDY    48  46  93 SE6       30.18F FOG
FRANKFORT      CLOUDY    57  50  77 S5        30.17F
$$

KYZ054-064>069-076>088-106>120-162000-
SOUTHEAST KENTUCKY

CITY           SKY/WX    TMP DP  RH WIND       PRES   REMARKS
JACKSON        CLOUDY    64  54  69 VRB3      30.22F
LONDON         CLOUDY    63  52  67 S6        30.21F
SOMERSET       CLOUDY    63  52  67 S8        30.21F
MIDDLESBORO    CLOUDY    63  54  72 S8        30.25F
MONTICELLO     PTCLDY    67  52  58 VRB5      30.20F
$$




USA.gov is the U.S. government's official web portal to all federal, state and local government web resources and services.